Weather Roundup
Issued by NWS Chicago, IL

Home | Current Version | Previous Version | Text Only | Print | Product List | Glossary Off
Versions: 1 2 3 4 5 6 7 8 9 10 11 12 13 14 15 16 17 18 19 20 21 22 23 24 25 26 27 28 29 30 31 32 33 34 35 36 37 38 39 40 41 42 43 44 45 46 47 48 49 50

593
NZUS59 KLOT 132308
HRRLOT

CHICAGO AREA WEATHER ROUNDUP
NATIONAL WEATHER SERVICE CHICAGO/ROMEOVILLE IL
500 PM CST SAT FEB 13 2016

NOTE: "FAIR" INDICATES FEW OR NO CLOUDS BELOW 12,000 FEET WITH NO
SIGNIFICANT WEATHER AND/OR OBSTRUCTIONS TO VISIBILITY.

* THESE STATIONS ARE NOT UNDER NWS QUALITY CONTROL. THEY ALSO MAY NOT
  REPORT WEATHER SUCH AS PRECIPITATION OR FOG.

ILZ005-006-012>014-019>023-140000-
NORTHEAST ILLINOIS

CITY           SKY/WX    TMP DP  RH WIND       PRES   REMARKS
OHARE          PTCLDY    15  -5  40 W7        30.51F WCI   5
MIDWAY         PTCLDY    17  -8  32 NW6       30.52F WCI   9
AURORA         CLEAR     16  -3  43 NW7       30.51F WCI   6
LANSING*       CLEAR     16  -8  33 NW6       30.52S WCI   7
JOLIET*        CLEAR     17  -3  40 NW3       30.52F
WAUKEGAN       CLEAR     13  -6  42 NW5       30.50F WCI   5
DUPAGE AIRPORT CLEAR     14  -6  40 NW7       30.50F WCI   4
WHEELING       CLEAR     14  -6  40 NW7       30.53S WCI   4
KANKAKEE*      CLOUDY    17  -4  39 NW5       30.53F WCI  10
MORRIS*        CLOUDY    16  -2  44 CALM      30.50F
LEWIS AIRPORT* CLEAR     15  -4  41 W3        30.51F
$$

WIZ051-052-058>065-066-070>072-140000-
SOUTHEAST WISCONSIN

CITY           SKY/WX    TMP DP  RH WIND       PRES   REMARKS
MILWAUKEE      PTCLDY    11  -9  40 W8        30.51F WCI  -1
KENOSHA*       CLEAR     13  -5  44 NW8       30.51S WCI   2
RACINE*        CLEAR     12  -9  38 NW7       30.53S WCI   1
BURLINGTON     CLEAR     10  -8  43 N5        30.51S WCI   2
WAUKESHA       CLEAR      9  -8  47 W8        30.50F WCI  -4
WEST BEND      CLEAR      9  -8  47 CALM      30.49S
$$

INZ001>003-010>013-019-020-140000-
NORTHWEST INDIANA

CITY           SKY/WX    TMP DP  RH WIND       PRES   REMARKS
GARY*          PTCLDY    19 -11  25 CALM      30.53F
MICHIGAN CITY* NOT AVBL
RENSSELAER*    NOT AVBL
VALPARAISO     CLEAR     13  -2  51 N3        30.51F
$$

LMZ740>746-140000-
SOUTHERN LAKE MICHIGAN

STATION/POSITION TIME  SKY/WX   TEMP WIND        PRES    VSBY
                                AIR  DIR/SP/G
                 (UTC)          (F)  (DEG/KT/KT) (MB)    (MI)
HARRISON CRIB    2200            18  310/  3/  4   N/A
BURNHAM HARBOR   2300            17   CALM  /  8   N/A
CALUMET HARBOR   2200            17              1032.9F
BURNS HARBOR     2200            15   CALM  /  7 1034.2F
MICHIGAN CITY    2200            15  270/ 10/ 12   N/A
$$

ABBREVIATIONS USED IN REMARKS
   TC - TEMPERATURE IN CELSIUS
  WCI - WIND CHILL INDEX
   HX - HEAT INDEX
  VSB - VISIBILITY
$$




USA.gov is the U.S. government's official web portal to all federal, state and local government web resources and services.